Skip Page Navigation
NASA JPL Caltech
NASA Logo - Jet Propulsion Laboratory + View the NASA Portal
+ Near-Earth Object (NEO) Program
Search JPL
JPL Home Earth Solar System Stars & Galaxies Technology
JPL Solar System Dynamics
BODIES ORBITS EPHEMERIDES TOOLS PHYSICAL DATA DISCOVERY FAQ SITE MAP
JPL Small-Body Database Browser
Search: [ help ]  
250680 (2005 QC5)
Classification: Aten [NEO, PHA]          SPK-ID: 2250680
Ephemeris | Orbit Diagram | Orbital Elements | Physical Parameters | Discovery Circumstances | Close-Approach Data ]

[ hide orbit diagram ]
Orbit Diagram
Note: Make sure you have Java enabled on your browser to see the applet. This applet is provided as a 3D orbit visualization tool. The applet was implemented using 2-body methods, and hence should not be used for determining accurate long-term trajectories (over several years or decades) or planetary encounter circumstances. For accurate long-term ephemerides, please instead use our Horizons system.
Orbit Viewer

Additional Notes: the orbits shown in the applet are color coded. The planets are white lines, and the asteroid/comet is a blue line. The bright white line indicates the portion of the orbit that is above the ecliptic plane, and the darker portion is below the ecliptic plane. Likewise for the asteroid/comet orbit, the light blue indicates the portion above the ecliptic plane, and the dark blue the portion below the ecliptic plane.

Orbit Viewer applet originally written and kindly provided by Osamu Ajiki (AstroArts), and further modified by Ron Baalke (JPL).


Orbital Elements at Epoch 2456400.5 (2013-Apr-18.0) TDB
Reference: JPL 25 (heliocentric ecliptic J2000)
 Element Value Uncertainty (1-sigma)   Units 
e .3645672504806169 3.9299e-07  
a .8930855684192497 9.0499e-09 AU
q .5674958182967249 3.4685e-07 AU
i 9.449036839850114 2.2126e-05 deg
node 48.13996510019916 0.00011685 deg
peri 108.6970741467889 0.00012891 deg
M 199.709143599353 6.9951e-05 deg
tp 2456537.760091066083
(2013-Sep-02.26009107)
6.1188e-05 JED
period 308.2748067692684
0.84
4.6858e-06
1.283e-08
d
yr
n 1.167789232512425 1.775e-08 deg/d
Q 1.218675318541774 1.2349e-08 AU
  Orbit Determination Parameters
   # obs. used (total)      84  
   data-arc span      12086 days (33.09 yr)  
   first obs. used      1978-09-24  
   last obs. used      2011-10-27  
   planetary ephem.      DE405  
   SB-pert. ephem.      SB405-CPV-2  
   condition code      0  
   fit RMS      .51646  
   data source      ORB  
   producer      Otto Matic  
   solution date      2013-Apr-29 15:40:58  

Additional Information
 Earth MOID = .0476707 AU 
 T_jup = 6.587 
[ show covariance matrix ]

Ephemeris | Orbit Diagram | Orbital Elements | Physical Parameters | Discovery Circumstances | Close-Approach Data ]

Physical Parameter Table
Parameter Symbol Value Units Sigma Reference Notes
absolute magnitude H 19.706 mag .40276 25 autocmod 2.5c

250680 (2005 QC5)          Discovered 2005-Aug-26 by Siding Spring Survey at Siding Spring (E12)
Reference: 20100923/Numbers.arcLast Updated: 2010-09-27

[ show close-approach data ]
Ephemeris | Orbit Diagram | Orbital Elements | Physical Parameters | Discovery Circumstances | Close-Approach Data ]
ABOUT SSD CREDITS/AWARDS PRIVACY/COPYRIGHT GLOSSARY LINKS
FirstGov 2013-May-21 11:03 UT
(server date/time)  
NASA Home Page
Site Manager:   Donald K. Yeomans
Webmaster  Alan B. Chamberlin